Satellite-Ground Cal/Val Region Overpasses Predictions

Prediction of Satellite NPP Overpassing Cal/Val Region: PacNW

Region Location: (Latitude: 10.00, Longitude: 139.50) to (Latitude: 22.70, Longitude: 165.60).

Table of predicted overpasses for the next 14.0 days since TLE Epoch: 10/16/2012
Interval Starting Time Starting Location Ending Time Ending Location
1 10/17/2012 02:37:04 ( 10.01, 159.95) 10/17/2012 02:40:40 ( 22.69, 156.93)
2 10/17/2012 15:08:57 ( 22.68, 157.17) 10/17/2012 15:12:32 ( 10.06, 154.17)
3 10/18/2012 02:18:03 ( 10.04, 164.69) 10/18/2012 02:21:38 ( 22.66, 161.69)
4 10/18/2012 14:49:57 ( 22.64, 161.92) 10/18/2012 14:53:32 ( 10.02, 158.92)
5 10/19/2012 03:40:32 ( 10.02, 144.08) 10/19/2012 03:44:07 ( 22.64, 141.07)
6 10/19/2012 14:32:10 ( 18.27, 165.60) 10/19/2012 14:34:30 ( 10.05, 163.68)
7 10/19/2012 16:12:25 ( 22.66, 141.30) 10/19/2012 16:14:31 ( 15.27, 139.51)
8 10/20/2012 03:21:31 ( 10.05, 148.82) 10/20/2012 03:25:06 ( 22.68, 145.82)
9 10/20/2012 15:53:24 ( 22.69, 146.06) 10/20/2012 15:57:00 ( 10.01, 143.05)
10 10/21/2012 03:02:30 ( 10.03, 153.58) 10/21/2012 03:06:05 ( 22.65, 150.58)
11 10/21/2012 15:34:23 ( 22.66, 150.81) 10/21/2012 15:37:58 ( 10.04, 147.81)
12 10/22/2012 02:43:29 ( 10.06, 158.33) 10/22/2012 02:47:04 ( 22.68, 155.33)
13 10/22/2012 15:15:22 ( 22.69, 155.57) 10/22/2012 15:18:58 ( 10.01, 152.55)
14 10/23/2012 02:24:28 ( 10.03, 163.09) 10/23/2012 02:28:03 ( 22.66, 160.09)
15 10/23/2012 14:56:22 ( 22.66, 160.31) 10/23/2012 14:59:57 ( 10.04, 157.31)
16 10/24/2012 02:08:09 ( 19.58, 165.60) 10/24/2012 02:09:02 ( 22.69, 164.83)
17 10/24/2012 03:46:56 ( 10.01, 142.47) 10/24/2012 03:50:29 ( 22.51, 139.50)
18 10/24/2012 14:37:20 ( 22.68, 165.07) 10/24/2012 14:40:56 ( 10.01, 162.06)
19 10/24/2012 16:18:50 ( 22.68, 139.70) 10/24/2012 16:19:03 ( 21.92, 139.51)
20 10/25/2012 03:27:56 ( 10.04, 147.22) 10/25/2012 03:31:31 ( 22.66, 144.22)
21 10/25/2012 15:59:50 ( 22.65, 144.45) 10/25/2012 16:03:25 ( 10.03, 141.44)
22 10/26/2012 03:08:54 ( 10.01, 151.98) 10/26/2012 03:12:30 ( 22.69, 148.96)
23
